Location: Ayer Observatory
(42.2600°N, 71.0700°W)
Time: 08:27:15
(UTC-04:00)

XW-2A - Pass Details

Date: 08 August 2020
Orbit: 428 x 443 km, 97.3° (Epoch: 21 September)

Event Time Altitude Azimuth Distance (km) Brightness Sun altitude
Exits shadow 20:27:53 - 131° (SE) 1,694 ? -6.5°
Reaches altitude 10° 20:28:20 10° 127° (SE) 1,528 ? -6.5°
Maximum altitude 20:31:03 25° 71° (ENE) 918 ? -7.0°
Drops below altitude 10° 20:33:47 10° 14° (NNE) 1,535 ? -7.4°
Sets 20:36:01 0° 1° (N) 2,407 ? -7.8°
